This demonstration page uses our WeatherBlox Daily Observations layout. Learn more.

Left ArrowRight Arrow

Hourly Observations for January 8, 2016

Temp ( °F °C ) Dew Point ( °F °C ) Humidity (%) Winds ( mph kmh ) Pressure ( in mb ) Visibility ( mi km ) Precip ( " mm )
12:54 am 00:54 Cloudy with Mist and Fog 33 0.6 32 0 96 96 N 12 19 29.78 1008 6 10 0.00 0.00
1:54 am 01:54 Cloudy with Mist and Fog 33 0.6 32 0 96 96 N 13 20 29.77 1008 4 6 0.00 0.00
2:54 am 02:54 Cloudy with Light Snow 33 0.6 32 0 96 96 N 14 22 29.78 1008 3 5 0.00 0.03
3:03 am 03:03 Cloudy with Light Snow 34 1 32 0 93 93 N 14 22 29.80 1009 3 4 0.00 0.00
3:10 am 03:10 Cloudy with Light Snow 34 1 32 0 93 93 N 14 22 29.80 1009 3 5 0.00 0.00
3:22 am 03:22 Cloudy with Light Snow 33 0.6 32 0 96 96 N 13 20 29.80 1009 3 4 0.01 0.25
3:54 am 03:54 Cloudy with Light Snow 33 0.6 31 -0.6 92 92 N 14 22 29.78 1008 3 5 0.03 0.76
4:25 am 04:25 Cloudy with Light Snow 33 0.6 31 -0.6 92 92 NNW 14 22 29.80 1009 2 3 0.00 0.03
4:39 am 04:39 Cloudy with Light Snow 33 0.6 31 -0.6 92 92 N 14 22 29.80 1009 2 3 0.01 0.25
4:54 am 04:54 Cloudy with Light Snow 33 0.6 31 -0.6 92 92 N 12 19 29.78 1009 2 3 0.01 0.25
5:01 am 05:01 Cloudy with Light Snow 33 0.6 31 -0.6 92 92 NNW 12 19 29.83 1010 2 3 0.00 0.03
5:54 am 05:54 Cloudy with Light Snow 33 0.6 31 -0.6 92 92 NNW 12 19 29.80 1009 2 3 0.01 0.25
6:23 am 06:23 Cloudy with Light Snow 33 0.6 31 -0.6 92 92 NNW 12 19 29.83 1010 3 4 0.01 0.25
6:46 am 06:46 Cloudy with Light Snow 32 0 31 -0.6 96 96 NNW 12 19 29.83 1010 2 3 0.01 0.25
6:54 am 06:54 Cloudy with Light Snow 32 0 31 -0.6 96 96 NNW 13 20 29.81 1010 2 3 0.01 0.25
7:05 am 07:05 Cloudy with Light Snow 32 0 30 -1.1 92 92 NNW 12 19 29.83 1010 2 3 0.00 0.03
7:17 am 07:17 Cloudy with Light Snow 32 0 30 -1.1 92 92 NNW 15 24 29.85 1011 2 3 0.01 0.25
7:27 am 07:27 Cloudy with Light Snow 32 0 30 -1.1 92 92 NNW 13 20 29.85 1011 3 5 0.01 0.25
7:35 am 07:35 Cloudy with Light Snow 32 0 30 -1.1 92 92 NNW 14 22 29.85 1011 3 4 0.01 0.25
7:54 am 07:54 Cloudy with Mist and Fog 32 0 30 -1.1 92 92 NNW 15 24 29.82 1010 3 5 0.01 0.25
8:54 am 08:54 Cloudy with Mist and Fog 32 0 30 -1.1 92 92 NNW 15 24 29.84 1011 5 8 0.00 0.00
9:54 am 09:54 Cloudy with Mist and Fog 33 0.6 30 -1.1 89 89 NNW 15 24 29.87 1011 6 10 0.00 0.00
10:54 am 10:54 Cloudy 33 0.6 30 -1.1 89 89 NNW 15 24 29.88 1012 8 13 0.00 0.00
11:54 am 11:54 Cloudy 34 1.1 30 -1.1 85 85 NNW 20 31 29.88 1012 7 11 0.00 0.00
12:54 pm 12:54 Cloudy 34 1.1 30 -1.1 85 85 N 18 30 29.87 1011 7 11 0.00 0.00
1:54 pm 13:54 Cloudy 33 0.6 29 -1.7 85 85 N 18 30 29.87 1012 7 11 0.00 0.00
2:54 pm 14:54 Cloudy 33 0.6 28 -2.2 82 82 N 20 31 29.89 1012 8 13 0.00 0.00
3:54 pm 15:54 Cloudy with Mist and Fog 32 0 28 -2.2 85 85 N 20 31 29.92 1013 6 10 0.00 0.00
4:54 pm 16:54 Windy with Snow Likely 31 -0.6 27 -2.8 85 85 NNW 22 35 29.95 1014 4 6 0.00 0.03
5:54 pm 17:54 Cloudy 30 -1.1 26 -3.3 85 85 N 18 30 29.99 1016 8 13 0.00 0.03
6:30 pm 18:30 Cloudy 30 -1 27 -3 86 86 NNW 14 22 30.03 1017 7 11 0.00 0.00
6:54 pm 18:54 Cloudy with Light Snow 30 -1.1 26 -3.3 85 85 N 16 26 30.01 1016 5 8 0.00 0.03
7:17 pm 19:17 Cloudy with Light Snow 29 -1.7 25 -3.9 85 85 NNW 18 30 30.06 1018 4 6 0.00 0.03
7:54 pm 19:54 Cloudy with Light Wintry Mix 28 -2.2 24 -4.4 85 85 N 20 31 30.03 1017 6 10 0.00 0.03
8:49 pm 20:49 Cloudy with Light Snow 27 -3 23 -5 86 86 N 16 26 30.09 1019 4 6 0.00 0.03
8:54 pm 20:54 Cloudy with Light Snow 27 -2.8 23 -5 85 85 N 15 24 30.04 1017 5 8 0.00 0.03
9:15 pm 21:15 Cloudy with Mist and Fog 27 -2.8 23 -5 85 85 N 16 26 30.09 1019 5 8 0.00 0.03
9:54 pm 21:54 Cloudy with Mist and Fog 27 -2.8 23 -5 85 85 N 14 22 30.05 1018 6 10 0.00 0.03
10:54 pm 22:54 Cloudy 25 -3.9 20 -6.7 81 81 N 22 35 30.06 1018 7 11 0.00 0.03
11:36 pm 23:36 Cloudy with Light Snow 25 -3.9 21 -6.1 85 85 N 13 20 30.15 1021 3 4 0.00 0.03
11:54 pm 23:54 Cloudy with Light Snow 25 -3.9 20 -6.7 81 81 NNW 16 26 30.09 1019 3 4 0.00 0.03

Powered by AerisWeather